Regional Weather Roundup
Issued by NWS

Home | Current Version | Previous Version | Text Only | Print | Product List | Glossary On
Versions: 1 2 3 4 5 6 7 8 9 10 11 12 13 14 15 16 17 18 19 20 21 22 23 24 25 26 27 28 29 30 31 32 33 34 35 36 37 38 39 40 41 42 43 44 45 46 47 48 49 50
000
ASUS45 KTFX 011319
RWRMT
MONTANA HOURLY WEATHER ROUNDUP
NATIONAL WEATHER SERVICE GREAT FALLS MT
619 AM MST SUN FEB 1 2015

NOTE: "FAIR" INDICATES FEW OR NO CLOUDS BELOW 12000 FEET WITH NO
SIGNIFICANT WEATHER AND/OR OBSTRUCTIONS TO VISIBILITY.

* THESE STATIONS ARE NOT UNDER NWS QUALITY CONTROL. THEY DO NOT
   REPORT WEATHER SUCH AS PRECIPITATION OR FOG.

MTZ001>007-043-011400-
WEST OF THE DIVIDE
CITY           SKY/WX    TMP DP  RH WIND       PRES   REMARKS
KALISPELL      CLOUDY    18  12  77 CALM      30.23F
MISSOULA       PTCLDY    25  18  75 SE9       30.24S WCI  16
BUTTE          PTCLDY    12   9  88 CALM      30.17S
MULLAN PASS    CLOUDY    21  18  88 S10       30.07F WCI  10
* ANACONDA     PTCLDY    18  12  77 S5         N/A   WCI  11
* ESSEX        N/A        9   5  84 SE4        N/A
* EUREKA APT   PTCLDY    25  21  85 NE3       30.23F
* HAMILTON APT PTCLDY    25  18  75 S5        30.21S WCI  19
* LIBBY APT    MOCLDY    25  23  92 CALM      30.23F
* LINCOLN      N/A        7   1  76 NE2        N/A
* LOOKOUT PASS N/A       23  22  96 S6         N/A   WCI  16
* POLSON       N/A       19  18  96 N/A        N/A
* RONAN APT    PTCLDY    23  21  92 N/A        N/A
* SEELEY LAKE  N/A       19  11  71 NW1        N/A
* THOMP F APT  CLOUDY    15  12  88 N2         N/A
$$

MTZ008-052>055-011400-
SOUTHWEST MONTANA
CITY           SKY/WX    TMP DP  RH WIND       PRES   REMARKS
BOZEMAN        CLEAR     16  10  77 CALM      30.26S
DILLON         PTCLDY    12   9  88 SE5       30.20S WCI   4
* W YELLOWSTON PTCLDY    14  11  88 N/A        N/A
* THREE FORKS  CLEAR     16  16 100 N/A        N/A
* BOULDER HILL N/A       10   6  84 S10        N/A   WCI  -4
* MONIDA PASS  N/A        4   1  87 SW2        N/A
* RAYNOLDS PAS N/A        5 -23  25 N/A        N/A
* WHITEHALL    N/A       12   7  80 NW4        N/A
* WISE RIVER   N/A        8   4  84 W2         N/A
$$

MTZ009>010-012-014-046-048-049-054-011400-
EAST SLOPES AND CENTRAL MONTANA
CITY           SKY/WX    TMP DP  RH WIND       PRES   REMARKS
CUT BANK       PTCLDY    -4  -8  83 S3        30.20F
GREAT FALLS    CLOUDY    -2  -6  83 S8        30.25F WCI -17
HELENA         CLEAR     12   9  88 CALM      30.28S
MALMSTROM AFB  CLOUDY    -2  -4  91 SE3       30.28F
* CONRAD       PTCLDY    -2  -9  72 CALM       N/A
* DEARBORN     N/A        2  -1  87 S1         N/A
* EAST GLACIER N/A        8   4  84 NW5        N/A   WCI  -1
* MONARCH      N/A        5   1  83 S8         N/A   WCI  -8
* PENDROY      N/A        4   2  91 SW8        N/A   WCI  -9
* ROGERS PASS  N/A       10   6  84 NW6G11     N/A
* SWEET GRASS  N/A       -1  -5  83 NW6        N/A   WCI -13
* WHITE SULPH  N/A        5  -1  76 NE5        N/A   WCI  -5
$$

MTZ011-013-016-021-035-040-045-047-050-051-011400-
NORTH CENTRAL MONTANA
CITY           SKY/WX    TMP DP  RH WIND       PRES   REMARKS
HAVRE          MOCLDY   -13 -17  82 CALM      30.37F
LEWISTOWN      MOCLDY     0  -6  75 SE7       30.25F WCI -13
* N BAR RANCH  CLEAR      1  -4  79 W5        30.25F WCI  -9
* CHINOOK      PTCLDY   -11 -17  74 CALM      30.40F
* CHESTER      N/A       -8 -14  74 N/A        N/A
* DENTON       N/A        1  -2  87 SE7        N/A   WCI -12
* GEYSER       N/A       -3  -7  83 SW3        N/A
* JUDITH GAP   N/A       -4  -6  91 SE8        N/A   WCI -19
* LOMA         N/A       -7 -11  82 NE1        N/A
$$

MTZ017>020-022>027-061-062-011400-
NORTHEAST MONTANA
CITY           SKY/WX    TMP DP  RH WIND       PRES   REMARKS
GLASGOW        PTCLDY    -4  -8  83 S6        30.45F WCI -17
GLENDIVE       CLEAR     -9  -9 100 CALM      30.45R
JORDAN         PTCLDY    -9 -13  82 CALM      30.43R
SIDNEY         CLEAR    -11 -17  74 W6        30.52F WCI -25
WOLF POINT     CLEAR    -11 -17  74 W5        30.51S WCI -23
* BEAVER HILL  N/A       -7 -11  82 NW2        N/A
* CIRCLE       N/A       -6 -10  82 N/A        N/A
* LINDSAY DVD  N/A      -13 -18  78 W4         N/A
* NAVAJO       N/A      -10 -15  78 W2         N/A
* PLENTYWOOD A CLEAR     -9 -15  74 CALM      30.46S
* POPLAR APT   CLEAR     -8 -11  86 N/A       30.51S
* SACO         N/A       -9 -14  78 S7         N/A   WCI -24
* SCOBEY APT   CLEAR    -11 -22  57 N/A        N/A
$$

MTZ028>042-056>058-011400-
SOUTHCENTRAL AND SOUTHEAST MONTANA
CITY           SKY/WX    TMP DP  RH WIND       PRES   REMARKS
BAKER          MOCLDY    -4  -9  79 NW9       30.39R WCI -20
BILLINGS       PTCLDY     7   1  76 CALM      30.34S
LIVINGSTON     CLOUDY    14  10  84 CALM      30.23R
MILES CITY     CLEAR      0  -4  83 W3        30.44R
* BIG TIMBER A CLEAR      9   5  84 E5        30.26R
* FORSYTH APT  CLEAR      1  -2  87 CALM      30.44R
* LAUREL APT   PTCLDY     3  -2  79 N/A        N/A
* ROUNDUP APT  CLEAR      7   0  73 N/A        N/A
* ALZADA       N/A       -6 -11  78 W4         N/A
* HYSHAM       N/A        1  -2  87 W2         N/A
* LAME DEER    N/A       -2  -6  83 NW4        N/A
* REED POINT   N/A        9   6  87 E3         N/A
* ROSCOE HILL  N/A        3  -2  79 E1         N/A
$$

REGIONAL REPORTS...DAKOTAS
CITY           SKY/WX    TMP DP  RH WIND       PRES   REMARKS
WILLISTON      MOCLDY   -15 -20  77 W3        30.50S
DICKINSON      MOCLDY    -6 -11  78 NW6       30.38R WCI -19
BEACH          FOG       -8 -11  86 NW6       30.42R WCI -21
CROSBY         CLEAR     -9 -13  82 W3        30.50F
TIOGA          CLEAR    -18 -22  81 W5        30.49R WCI -32
WATFORD CITY   CLEAR    -11 -17  74 CALM      30.48R
BISMARCK       MOCLDY    -6 -15  64 N10       30.49S WCI -23
GRAND FORKS    PTCLDY   -11 -20  63 N15       30.57S WCI -33
FARGO          CLOUDY    -6 -15  64 N21       30.48R WCI -30
BUFFALO SD     CLEAR      0  -6  75 NW12      30.27R WCI -17
RAPID CITY     MOCLDY     1  -2  87 N16       30.29R WCI -19
$$

REGIONAL REPORTS...WYOMING/IDAHO/WASHINGTON
CITY           SKY/WX    TMP DP  RH WIND       PRES   REMARKS
GILLETTE       FOG        7   1  76 N12       30.24R WCI  -9
SHERIDAN       CLOUDY    10   3  73 NW10      30.31R WCI  -4
CODY           CLOUDY    10   9  96 NE7       30.21R WCI  -1
YELLOWSTONE LA PTCLDY     1  -2  87 VRB3      30.13S
SALMON         CLOUDY    21  18  88 NE3       30.27R
MULLAN PASS    CLOUDY    21  18  88 S10       30.07S WCI  10
SAND POINT     CLOUDY    30  30 100 CALM      30.23F
SPOKANE        CLOUDY    28  27  96 NE6       30.19F WCI  21
$$

REGIONAL REPORTS...ALBERTA
CITY           SKY/WX    TMP DP  RH WIND       PRES   REMARKS
CALGARY        PTCLDY     1  -2  87 S3        30.09F
LETHBRIDGE     N/A       -6  -9  87 W5        30.19F WCI -18
MEDICINE HAT   N/A       -8 -11  86 NE2       30.30F
EDMONTON       PTCLDY    -9 -15  74 S3        30.20F
WATERTON GATE  N/A       23  14  68 SW17G23    N/A   WCI   9
CARDSTON       N/A        1   0  95 S7         N/A   WCI -12
MILK RIVER     N/A        0  -4  83 S10        N/A   WCI -16
$$

REGIONAL REPORTS...SASKATCHEWAN
CITY           SKY/WX    TMP DP  RH WIND       PRES   REMARKS
SWIFT CURRENT  CLEAR     -4  -8  83 SW9       30.32F WCI -20
REGINA         FAIR     -17 -20  86 S6        30.47F WCI -32
VAL MARIE      N/A      -20 -26  73 NE2        N/A
ASSINIBOIA     N/A       -9 -13  82 S3         N/A
CORONACH       N/A      -15 -20  77 S1         N/A

$$




USA.gov is the U.S. government's official web portal to all federal, state and local government web resources and services.